| time (UTC) | temp C | wind direction | speed KPH | gust KPH | rain 1hr cm | rain 24hr cm | rain mn cm | humidity % | barometer mb |
| 20260505180032 | 15 | 234 | 6.4 | 8.0 | 0.00 | 0.46 | 0.46 | 87 | 1004.7 |
| 20260505175532 | 15 | 261 | 3.2 | 3.2 | 0.00 | 0.46 | 0.46 | 88 | 1004.5 |
| 20260505175029 | 14 | 290 | 4.8 | 8.0 | 0.00 | 0.46 | 0.46 | 89 | 1004.6 |
| 20260505174526 | 14 | 267 | 6.4 | 8.0 | 0.00 | 0.46 | 0.46 | 88 | 1004.7 |
| 20260505174022 | 13 | 242 | 11.3 | 16.1 | 0.00 | 0.46 | 0.46 | 88 | 1004.5 |
| 20260505173519 | 14 | 313 | 16.1 | 22.5 | 0.00 | 0.46 | 0.46 | 87 | 1004.6 |
| 20260505173016 | 14 | 312 | 11.3 | 14.5 | 0.00 | 0.46 | 0.46 | 86 | 1004.3 |
| 20260505172514 | 14 | 276 | 8.0 | 9.7 | 0.13 | 0.46 | 0.46 | 87 | 1004.5 |
| 20260505172009 | 14 | 297 | 17.7 | 20.9 | 0.30 | 0.46 | 0.46 | 86 | 1004.4 |
| 20260505171505 | 14 | 279 | 12.9 | 14.5 | 0.48 | 0.43 | 0.43 | 87 | 1004.7 |
| 20260505171002 | 14 | 261 | 11.3 | 14.5 | 0.61 | 0.41 | 0.41 | 88 | 1004.7 |
| 20260505170459 | 15 | 281 | 4.8 | 9.7 | 0.61 | 0.36 | 0.36 | 87 | 1004.9 |
| 20260505165954 | 15 | 283 | 9.7 | 11.3 | 0.18 | 0.28 | 0.28 | 86 | 1004.8 |
| 20260505165450 | 15 | 265 | 14.5 | 16.1 | 0.13 | 0.25 | 0.25 | 85 | 1004.7 |
| 20260505164946 | 15 | 300 | 19.3 | 25.7 | 0.13 | 0.25 | 0.25 | 84 | 1004.5 |
| 20260505164442 | 16 | 280 | 14.5 | 17.7 | 0.00 | 0.23 | 0.23 | 82 | 1004.6 |
| 20260505163940 | 16 | 277 | 11.3 | 16.1 | 0.18 | 0.23 | 0.23 | 83 | 1004.3 |
| 20260505163439 | 16 | 267 | 14.5 | 17.7 | 0.18 | 0.23 | 0.23 | 82 | 1004.4 |
| 20260505162938 | 17 | 296 | 9.7 | 14.5 | 0.00 | 0.20 | 0.20 | 80 | 1004.3 |
| 20260505162433 | 18 | 279 | 16.1 | 17.7 | 0.00 | 0.20 | 0.20 | 73 | 1003.9 |
| 20260505161930 | 18 | 258 | 4.8 | 4.8 | 0.00 | 0.20 | 0.20 | 72 | 1003.5 |
| 20260505161427 | 19 | 242 | 3.2 | 3.2 | 0.00 | 0.20 | 0.20 | 72 | 1003.3 |
| 20260505160924 | 19 | 227 | 8.0 | 11.3 | 0.00 | 0.20 | 0.20 | 71 | 1003.3 |
| 20260505160422 | 20 | 277 | 4.8 | 9.7 | 0.00 | 0.20 | 0.20 | 69 | 1003.5 |
| 20260505152858 | 20 | 248 | 3.2 | 3.2 | 0.00 | 0.20 | 0.20 | 65 | 1003.5 |
| 20260505152350 | 20 | 258 | 6.4 | 11.3 | 0.00 | 0.20 | 0.20 | 65 | 1003.3 |
| 20260505151849 | 20 | 284 | 8.0 | 11.3 | 0.00 | 0.20 | 0.20 | 65 | 1003.4 |
| 20260505151346 | 20 | 248 | 4.8 | 8.0 | 0.00 | 0.20 | 0.20 | 66 | 1003.3 |
| 20260505150843 | 20 | 175 | 4.8 | 9.7 | 0.00 | 0.20 | 0.20 | 67 | 1003.4 |
| 20260505150341 | 20 | 178 | 4.8 | 8.0 | 0.00 | 0.20 | 0.20 | 68 | 1003.3 |
| 20260505140305 | 21 | 253 | 11.3 | 12.9 | 0.00 | 0.20 | 0.20 | 62 | 1002.7 |
| 20260505130228 | 20 | 307 | 6.4 | 8.0 | 0.00 | 0.20 | 0.20 | 66 | 1002.6 |
| 20260505124719 | 20 | 214 | 6.4 | 9.7 | 0.00 | 0.20 | 0.20 | 66 | 1002.4 |
| 20260505124216 | 20 | 269 | 6.4 | 8.0 | 0.00 | 0.20 | 0.20 | 67 | 1002.7 |
| 20260505123711 | 19 | 260 | 3.2 | 3.2 | 0.00 | 0.20 | 0.20 | 68 | 1002.5 |
| 20260505123209 | 19 | 266 | 8.0 | 14.5 | 0.00 | 0.20 | 0.20 | 67 | 1002.6 |
| 20260505122705 | 19 | 225 | 6.4 | 8.0 | 0.00 | 0.20 | 0.20 | 67 | 1002.6 |
| 20260505122202 | 19 | 236 | 4.8 | 8.0 | 0.00 | 0.20 | 0.20 | 67 | 1002.6 |
| 20260505121659 | 19 | 206 | 4.8 | 9.7 | 0.00 | 0.20 | 0.20 | 68 | 1002.6 |
| 20260505121155 | 18 | 225 | 9.7 | 12.9 | 0.00 | 0.20 | 0.20 | 70 | 1002.8 |
| 20260505120651 | 18 | 228 | 9.7 | 12.9 | 0.00 | 0.20 | 0.20 | 70 | 1002.6 |
| 20260505120147 | 17 | 221 | 8.0 | 11.3 | 0.00 | 0.20 | 0.20 | 71 | 1002.9 |
| 20260505115641 | 17 | 244 | 3.2 | 3.2 | 0.00 | 0.20 | 0.20 | 73 | 1002.6 |
| 20260505115139 | 17 | 248 | 6.4 | 9.7 | 0.00 | 0.20 | 0.20 | 72 | 1002.7 |
| 20260505114636 | 17 | 229 | 12.9 | 14.5 | 0.00 | 0.20 | 0.20 | 72 | 1002.7 |
| 20260505114132 | 17 | 277 | 4.8 | 8.0 | 0.00 | 0.20 | 0.20 | 73 | 1002.5 |
| 20260505113629 | 17 | 179 | 8.0 | 9.7 | 0.00 | 0.20 | 0.20 | 72 | 1002.6 |
| 20260505113126 | 17 | 220 | 4.8 | 8.0 | 0.00 | 0.20 | 0.20 | 72 | 1002.4 |
| 20260505112622 | 17 | 225 | 1.6 | 3.2 | 0.00 | 0.20 | 0.20 | 73 | 1002.4 |
| 20260505112120 | 17 | 287 | 6.4 | 9.7 | 0.00 | 0.20 | 0.20 | 73 | 1002.4 |
| 20260505111614 | 17 | 256 | 6.4 | 9.7 | 0.00 | 0.20 | 0.20 | 74 | 1002.4 |
| 20260505111110 | 17 | 179 | 4.8 | 8.0 | 0.00 | 0.20 | 0.20 | 74 | 1002.2 |
| 20260505110607 | 17 | 212 | 11.3 | 16.1 | 0.00 | 0.20 | 0.20 | 76 | 1002.1 |
| 20260505110104 | 16 | 244 | 4.8 | 11.3 | 0.00 | 0.20 | 0.20 | 77 | 1002.3 |
| 20260505102039 | 15 | 228 | 1.6 | 1.6 | 0.00 | 0.20 | 0.20 | 87 | 1002.1 |
| 20260505101537 | 15 | 232 | 3.2 | 3.2 | 0.00 | 0.20 | 0.20 | 87 | 1001.9 |
| 20260505101033 | 15 | 252 | 0.0 | 0.0 | 0.00 | 0.20 | 0.20 | 86 | 1002.1 |
| 20260505100531 | 15 | 258 | 3.2 | 4.8 | 0.30 | 0.20 | 0.20 | 86 | 1002.3 |
| 20260505100027 | 15 | 216 | 3.2 | 3.2 | 0.61 | 0.20 | 0.20 | 85 | 1002.9 |
| 20260505095524 | 15 | 224 | 1.6 | 3.2 | 0.13 | 0.13 | 0.13 | 84 | 1002.5 |
| 20260505095020 | 15 | 256 | 1.6 | 1.6 | 0.00 | 0.10 | 0.10 | 84 | 1002.7 |
| 20260505094517 | 15 | 205 | 1.6 | 3.2 | 0.00 | 0.10 | 0.10 | 85 | 1002.5 |
| 20260505094013 | 15 | 271 | 0.0 | 0.0 | 0.00 | 0.10 | 0.10 | 85 | 1002.7 |
| 20260505093509 | 15 | 294 | 0.0 | 1.6 | 0.00 | 0.10 | 0.10 | 84 | 1002.7 |
| 20260505093007 | 15 | 299 | 0.0 | 1.6 | 0.00 | 0.10 | 0.10 | 83 | 1002.8 |
| 20260505092504 | 15 | 250 | 1.6 | 1.6 | 0.00 | 0.10 | 0.10 | 83 | 1002.7 |
| 20260505092002 | 15 | 233 | 4.8 | 8.0 | 0.18 | 0.10 | 0.10 | 82 | 1003.0 |
| 20260505091459 | 15 | 269 | 1.6 | 1.6 | 0.48 | 0.10 | 0.10 | 81 | 1002.9 |
| 20260505090957 | 16 | 239 | 1.6 | 3.2 | 0.30 | 0.05 | 0.05 | 79 | 1003.0 |
| 20260505090455 | 17 | 236 | 4.8 | 8.0 | 0.00 | 0.00 | 0.00 | 73 | 1002.5 |
| 20260505085952 | 17 | 227 | 3.2 | 3.2 | 0.00 | 0.00 | 0.00 | 70 | 1002.5 |
| 20260505085450 | 17 | 215 | 11.3 | 14.5 | 0.00 | 0.00 | 0.00 | 68 | 1002.7 |
| 20260505084948 | 17 | 192 | 3.2 | 3.2 | 0.00 | 0.00 | 0.00 | 68 | 1002.5 |
| 20260505084446 | 17 | 21 | 4.8 | 4.8 | 0.00 | 0.00 | 0.00 | 69 | 1002.9 |
| 20260505083943 | 17 | 207 | 9.7 | 12.9 | 0.00 | 0.00 | 0.00 | 69 | 1002.9 |
| 20260505083440 | 17 | 226 | 4.8 | 8.0 | 0.00 | 0.00 | 0.00 | 67 | 1002.9 |
| 20260505082937 | 18 | 220 | 11.3 | 17.7 | 0.00 | 0.00 | 0.00 | 64 | 1002.8 |
| 20260505082432 | 18 | 246 | 9.7 | 14.5 | 0.00 | 0.00 | 0.00 | 63 | 1002.7 |
| 20260505081930 | 18 | 231 | 8.0 | 11.3 | 0.00 | 0.00 | 0.00 | 63 | 1002.6 |
| 20260505081427 | 18 | 237 | 1.6 | 3.2 | 0.00 | 0.00 | 0.00 | 64 | 1002.8 |
| 20260505080923 | 18 | 235 | 6.4 | 12.9 | 0.00 | 0.00 | 0.00 | 63 | 1002.8 |
| 20260505080419 | 18 | 225 | 4.8 | 8.0 | 0.00 | 0.00 | 0.00 | 62 | 1003.0 |
| 20260505075915 | 17 | 214 | 9.7 | 12.9 | 0.00 | 0.00 | 0.00 | 63 | 1002.9 |
| 20260505075412 | 17 | 256 | 1.6 | 1.6 | 0.00 | 0.00 | 0.00 | 63 | 1002.9 |
| 20260505074909 | 17 | 243 | 4.8 | 4.8 | 0.00 | 0.00 | 0.00 | 62 | 1003.0 |
| 20260505074406 | 17 | 269 | 4.8 | 4.8 | 0.00 | 0.00 | 0.00 | 63 | 1003.1 |
| 20260505073903 | 17 | 262 | 4.8 | 8.0 | 0.00 | 0.00 | 0.00 | 62 | 1003.1 |
| 20260505073401 | 17 | 269 | 1.6 | 3.2 | 0.00 | 0.00 | 0.00 | 62 | 1002.9 |
| 20260505072858 | 17 | 220 | 3.2 | 3.2 | 0.00 | 0.00 | 0.00 | 61 | 1003.1 |
| 20260505072354 | 17 | 242 | 9.7 | 12.9 | 0.00 | 0.00 | 0.00 | 61 | 1003.0 |
| 20260505071850 | 17 | 249 | 3.2 | 3.2 | 0.00 | 0.00 | 0.00 | 59 | 1002.8 |
| 20260505071347 | 18 | 270 | 3.2 | 3.2 | 0.00 | 0.00 | 0.00 | 59 | 1003.0 |
| 20260505070845 | 18 | 281 | 11.3 | 16.1 | 0.00 | 0.00 | 0.00 | 58 | 1003.0 |
| 20260505070341 | 18 | 260 | 3.2 | 3.2 | 0.00 | 0.00 | 0.00 | 57 | 1002.5 |
| 20260505065836 | 18 | 228 | 4.8 | 4.8 | 0.00 | 0.00 | 0.00 | 58 | 1002.9 |
| 20260505065334 | 17 | 98 | 4.8 | 8.0 | 0.00 | 0.00 | 0.00 | 58 | 1002.7 |
| 20260505064831 | 17 | 278 | 3.2 | 3.2 | 0.00 | 0.00 | 0.00 | 57 | 1002.7 |
| 20260505064327 | 17 | 260 | 4.8 | 4.8 | 0.00 | 0.00 | 0.00 | 58 | 1002.4 |
| 20260505063826 | 18 | 275 | 4.8 | 9.7 | 0.00 | 0.00 | 0.00 | 56 | 1002.4 |
| 20260505063321 | 17 | 178 | 4.8 | 4.8 | 0.00 | 0.00 | 0.00 | 57 | 1002.6 |
| 20260505062818 | 17 | 187 | 4.8 | 4.8 | 0.00 | 0.00 | 0.00 | 57 | 1002.5 |
| 20260505062316 | 17 | 189 | 4.8 | 8.0 | 0.00 | 0.00 | 0.00 | 57 | 1002.6 |
| 20260505061812 | 17 | 223 | 6.4 | 9.7 | 0.00 | 0.00 | 0.00 | 57 | 1002.6 |
| 20260505061311 | 17 | 150 | 1.6 | 3.2 | 0.00 | 0.00 | 0.00 | 57 | 1002.5 |
| 20260505060807 | 17 | 254 | 4.8 | 9.7 | 0.00 | 0.00 | 0.00 | 57 | 1002.6 |
| 20260505060056 | 16 | 286 | 0.0 | 1.6 | 0.00 | 0.00 | 0.00 | 61 | 1002.6 |
| 20260505055551 | 16 | 286 | 0.0 | 1.6 | 0.00 | 0.00 | 0.00 | 61 | 1002.6 |
| 20260505055048 | 16 | 215 | 4.8 | 4.8 | 0.00 | 0.00 | 0.00 | 61 | 1003.0 |
| 20260505054545 | 15 | 264 | 1.6 | 3.2 | 0.00 | 0.00 | 0.00 | 62 | 1003.1 |
| 20260505054043 | 15 | 267 | 0.0 | 0.0 | 0.00 | 0.00 | 0.00 | 63 | 1003.0 |
| 20260505053540 | 15 | 268 | 0.0 | 0.0 | 0.00 | 0.00 | 0.00 | 64 | 1003.1 |
| 20260505053037 | 14 | 211 | 3.2 | 3.2 | 0.00 | 0.00 | 0.00 | 65 | 1003.1 |
| 20260505052534 | 14 | 273 | 0.0 | 0.0 | 0.00 | 0.00 | 0.00 | 67 | 1003.2 |
| 20260505052031 | 13 | 265 | 1.6 | 3.2 | 0.00 | 0.00 | 0.00 | 68 | 1003.2 |
| 20260505051528 | 12 | 266 | 0.0 | 0.0 | 0.00 | 0.00 | 0.00 | 73 | 1003.1 |
| 20260505051026 | 11 | 278 | 0.0 | 0.0 | 0.00 | 0.00 | 0.00 | 74 | 1003.3 |
| 20260505050524 | 11 | 235 | 0.0 | 0.0 | 0.00 | 0.00 | 0.00 | 75 | 1003.1 |
| 20260505041451 | 11 | 244 | 0.0 | 1.6 | 0.00 | 0.00 | 0.00 | 74 | 1003.3 |
| 20260505040949 | 11 | 261 | 0.0 | 0.0 | 0.00 | 0.00 | 0.00 | 73 | 1003.4 |
| 20260505040446 | 11 | 283 | 0.0 | 0.0 | 0.00 | 0.00 | 0.00 | 72 | 1003.3 |
| 20260505035943 | 12 | 272 | 0.0 | 0.0 | 0.00 | 0.20 | 0.20 | 71 | 1003.4 |
| 20260505035439 | 12 | 273 | 0.0 | 0.0 | 0.00 | 0.20 | 0.20 | 70 | 1003.3 |
| 20260505034936 | 12 | 262 | 0.0 | 0.0 | 0.00 | 0.20 | 0.20 | 71 | 1003.2 |
| 20260505034433 | 12 | 266 | 0.0 | 0.0 | 0.00 | 0.20 | 0.20 | 70 | 1003.1 |
| 20260505033930 | 12 | 246 | 0.0 | 1.6 | 0.00 | 0.20 | 0.20 | 71 | 1003.2 |
| 20260505033426 | 12 | 256 | 0.0 | 0.0 | 0.00 | 0.20 | 0.20 | 72 | 1003.3 |
| 20260505032925 | 12 | 262 | 0.0 | 0.0 | 0.00 | 0.20 | 0.20 | 73 | 1003.4 |
| 20260505032422 | 12 | 229 | 0.0 | 0.0 | 0.00 | 0.20 | 0.20 | 74 | 1003.3 |
| 20260505031918 | 12 | 264 | 0.0 | 0.0 | 0.00 | 0.20 | 0.20 | 75 | 1003.3 |
| 20260505031415 | 11 | 252 | 0.0 | 0.0 | 0.00 | 0.20 | 0.20 | 77 | 1003.5 |
| 20260505030912 | 11 | 267 | 0.0 | 0.0 | 0.00 | 0.20 | 0.20 | 80 | 1003.2 |
| 20260505030408 | 10 | 227 | 1.6 | 1.6 | 0.00 | 0.20 | 0.20 | 83 | 1003.6 |
| 20260505025903 | 10 | 253 | 0.0 | 0.0 | 0.00 | 0.20 | 0.20 | 83 | 1003.5 |
| 20260505025401 | 10 | 263 | 0.0 | 0.0 | 0.00 | 0.20 | 0.20 | 82 | 1003.7 |
| 20260505024900 | 10 | 254 | 0.0 | 0.0 | 0.00 | 0.20 | 0.20 | 83 | 1003.7 |
| 20260505024357 | 10 | 266 | 0.0 | 0.0 | 0.00 | 0.20 | 0.20 | 82 | 1003.6 |
| 20260505023854 | 10 | 251 | 0.0 | 0.0 | 0.00 | 0.20 | 0.20 | 82 | 1003.7 |
| 20260505023351 | 11 | 243 | 0.0 | 1.6 | 0.00 | 0.20 | 0.20 | 81 | 1003.9 |
| 20260505022848 | 11 | 253 | 0.0 | 0.0 | 0.00 | 0.20 | 0.20 | 81 | 1003.7 |
| 20260505022345 | 11 | 262 | 0.0 | 0.0 | 0.00 | 0.20 | 0.20 | 81 | 1003.8 |
| 20260505021843 | 11 | 256 | 0.0 | 0.0 | 0.00 | 0.20 | 0.20 | 81 | 1003.9 |
| 20260505021339 | 11 | 249 | 0.0 | 0.0 | 0.00 | 0.20 | 0.20 | 80 | 1003.9 |
| 20260505020835 | 11 | 241 | 0.0 | 1.6 | 0.00 | 0.20 | 0.20 | 80 | 1004.1 |
| 20260505020330 | 11 | 253 | 0.0 | 0.0 | 0.00 | 0.20 | 0.20 | 80 | 1004.2 |
| 20260505015827 | 11 | 302 | 0.0 | 0.0 | 0.00 | 0.20 | 0.20 | 78 | 1003.9 |
| 20260505015324 | 11 | 238 | 1.6 | 1.6 | 0.00 | 0.20 | 0.20 | 77 | 1004.1 |
| 20260505014822 | 12 | 253 | 0.0 | 0.0 | 0.00 | 0.20 | 0.20 | 76 | 1004.2 |
| 20260505014318 | 12 | 284 | 0.0 | 0.0 | 0.00 | 0.20 | 0.20 | 75 | 1004.3 |
| 20260505013815 | 12 | 277 | 0.0 | 0.0 | 0.00 | 0.20 | 0.20 | 75 | 1004.0 |
| 20260505013312 | 12 | 253 | 0.0 | 0.0 | 0.00 | 0.20 | 0.20 | 73 | 1004.1 |
| 20260505012811 | 12 | 245 | 0.0 | 1.6 | 0.00 | 0.20 | 0.20 | 72 | 1004.1 |
| 20260505012308 | 13 | 262 | 0.0 | 0.0 | 0.00 | 0.20 | 0.20 | 71 | 1004.2 |
| 20260505011804 | 13 | 226 | 1.6 | 1.6 | 0.00 | 0.20 | 0.20 | 69 | 1004.3 |
| 20260505011301 | 13 | 276 | 0.0 | 0.0 | 0.00 | 0.20 | 0.20 | 68 | 1004.0 |
| 20260505010757 | 13 | 271 | 0.0 | 0.0 | 0.00 | 0.20 | 0.20 | 68 | 1004.1 |
| 20260505010253 | 13 | 270 | 0.0 | 0.0 | 0.00 | 0.20 | 0.20 | 66 | 1004.2 |
| 20260505005749 | 14 | 256 | 0.0 | 0.0 | 0.00 | 0.20 | 0.20 | 65 | 1004.0 |
| 20260505005247 | 15 | 255 | 0.0 | 0.0 | 0.00 | 0.20 | 0.20 | 64 | 1004.2 |
| 20260505004744 | 15 | 260 | 0.0 | 0.0 | 0.00 | 0.20 | 0.20 | 64 | 1004.0 |
| 20260505004239 | 15 | 270 | 0.0 | 0.0 | 0.00 | 0.20 | 0.20 | 61 | 1003.9 |
| 20260505003737 | 15 | 270 | 0.0 | 0.0 | 0.00 | 0.20 | 0.20 | 61 | 1003.8 |
| 20260505003235 | 15 | 269 | 0.0 | 0.0 | 0.00 | 0.20 | 0.20 | 61 | 1003.7 |
| 20260505002731 | 16 | 266 | 0.0 | 0.0 | 0.00 | 0.20 | 0.20 | 59 | 1003.9 |
| 20260505002228 | 16 | 270 | 0.0 | 0.0 | 0.00 | 0.20 | 0.20 | 59 | 1003.8 |
| 20260505001726 | 16 | 266 | 0.0 | 0.0 | 0.00 | 0.20 | 0.20 | 59 | 1003.8 |
| 20260505001223 | 16 | 267 | 0.0 | 0.0 | 0.00 | 0.20 | 0.20 | 58 | 1003.8 |
| 20260505000720 | 17 | 270 | 0.0 | 0.0 | 0.00 | 0.20 | 0.20 | 58 | 1003.9 |
| 20260505000219 | 17 | 263 | 0.0 | 0.0 | 0.00 | 0.20 | 0.20 | 57 | 1003.7 |
| 20260504235714 | 17 | 286 | 0.0 | 0.0 | 0.00 | 0.20 | 0.20 | 56 | 1003.6 |
| 20260504235210 | 18 | 264 | 0.0 | 0.0 | 0.00 | 0.20 | 0.20 | 55 | 1003.6 |
| 20260504234708 | 18 | 266 | 0.0 | 0.0 | 0.00 | 0.20 | 0.20 | 53 | 1003.6 |
| 20260504234205 | 18 | 258 | 0.0 | 0.0 | 0.00 | 0.20 | 0.20 | 53 | 1003.4 |
| 20260504233701 | 18 | 280 | 1.6 | 1.6 | 0.00 | 0.20 | 0.20 | 51 | 1003.6 |
| 20260504233157 | 19 | 279 | 0.0 | 1.6 | 0.00 | 0.20 | 0.20 | 52 | 1003.7 |
| 20260504232654 | 19 | 263 | 0.0 | 0.0 | 0.00 | 0.20 | 0.20 | 52 | 1003.7 |
| 20260504232151 | 20 | 267 | 0.0 | 0.0 | 0.00 | 0.20 | 0.20 | 51 | 1003.6 |
| 20260504231648 | 20 | 267 | 1.6 | 3.2 | 0.00 | 0.20 | 0.20 | 51 | 1003.6 |
| 20260504231144 | 20 | 286 | 1.6 | 3.2 | 0.00 | 0.20 | 0.20 | 50 | 1003.7 |
| 20260504230640 | 20 | 294 | 1.6 | 1.6 | 0.00 | 0.20 | 0.20 | 49 | 1003.8 |
| 20260504230140 | 20 | 286 | 6.4 | 9.7 | 0.00 | 0.20 | 0.20 | 49 | 1003.8 |
| 20260504225637 | 20 | 264 | 1.6 | 1.6 | 0.00 | 0.20 | 0.20 | 48 | 1003.8 |
| 20260504225133 | 20 | 265 | 3.2 | 3.2 | 0.00 | 0.20 | 0.20 | 48 | 1004.0 |
| 20260504224630 | 20 | 258 | 9.7 | 14.5 | 0.00 | 0.20 | 0.20 | 46 | 1003.8 |
| 20260504224127 | 21 | 261 | 4.8 | 4.8 | 0.00 | 0.20 | 0.20 | 46 | 1003.7 |
| 20260504223624 | 21 | 267 | 1.6 | 3.2 | 0.00 | 0.20 | 0.20 | 46 | 1003.7 |
| 20260504223120 | 21 | 264 | 1.6 | 1.6 | 0.00 | 0.20 | 0.20 | 47 | 1003.9 |
| 20260504222617 | 21 | 251 | 1.6 | 1.6 | 0.00 | 0.20 | 0.20 | 47 | 1004.0 |
| 20260504222114 | 21 | 323 | 4.8 | 8.0 | 0.00 | 0.20 | 0.20 | 47 | 1003.9 |
| 20260504221611 | 21 | 236 | 3.2 | 4.8 | 0.00 | 0.20 | 0.20 | 47 | 1004.1 |
| 20260504221108 | 21 | 250 | 8.0 | 11.3 | 0.00 | 0.20 | 0.20 | 46 | 1004.0 |
| 20260504220604 | 21 | 200 | 3.2 | 4.8 | 0.00 | 0.20 | 0.20 | 46 | 1003.9 |
| 20260504215558 | 21 | 261 | 3.2 | 4.8 | 0.00 | 0.20 | 0.20 | 46 | 1004.0 |
| 20260504215055 | 21 | 265 | 1.6 | 1.6 | 0.00 | 0.20 | 0.20 | 47 | 1004.0 |
| 20260504214551 | 21 | 258 | 11.3 | 12.9 | 0.00 | 0.20 | 0.20 | 46 | 1004.2 |
| 20260504214048 | 21 | 258 | 11.3 | 14.5 | 0.00 | 0.20 | 0.20 | 45 | 1004.2 |
| 20260504213544 | 21 | 252 | 3.2 | 3.2 | 0.00 | 0.20 | 0.20 | 47 | 1004.2 |
| 20260504213042 | 21 | 261 | 14.5 | 16.1 | 0.00 | 0.20 | 0.20 | 45 | 1004.3 |
| 20260504212537 | 21 | 279 | 3.2 | 4.8 | 0.00 | 0.20 | 0.20 | 48 | 1004.3 |
| 20260504212035 | 21 | 271 | 9.7 | 9.7 | 0.00 | 0.20 | 0.20 | 46 | 1004.2 |
| 20260504211532 | 21 | 251 | 4.8 | 4.8 | 0.00 | 0.20 | 0.20 | 46 | 1004.1 |
| 20260504211029 | 21 | 250 | 8.0 | 9.7 | 0.00 | 0.20 | 0.20 | 46 | 1004.3 |
| 20260504210526 | 21 | 288 | 19.3 | 22.5 | 0.00 | 0.20 | 0.20 | 45 | 1004.2 |
| 20260504210022 | 21 | 229 | 6.4 | 11.3 | 0.00 | 0.20 | 0.20 | 46 | 1004.3 |
| 20260504205520 | 21 | 324 | 9.7 | 11.3 | 0.00 | 0.20 | 0.20 | 46 | 1004.3 |
| 20260504205018 | 21 | 264 | 11.3 | 17.7 | 0.00 | 0.20 | 0.20 | 46 | 1004.4 |
| 20260504204516 | 21 | 251 | 6.4 | 11.3 | 0.00 | 0.20 | 0.20 | 47 | 1004.4 |
| 20260504204015 | 21 | 269 | 11.3 | 12.9 | 0.00 | 0.20 | 0.20 | 47 | 1004.4 |
| 20260504203512 | 21 | 271 | 17.7 | 22.5 | 0.00 | 0.20 | 0.20 | 46 | 1004.5 |
| 20260504203009 | 21 | 273 | 12.9 | 20.9 | 0.00 | 0.20 | 0.20 | 47 | 1004.4 |
| 20260504202504 | 21 | 289 | 6.4 | 8.0 | 0.00 | 0.20 | 0.20 | 48 | 1004.4 |
| 20260504202001 | 21 | 240 | 4.8 | 8.0 | 0.00 | 0.20 | 0.20 | 47 | 1004.6 |
| 20260504201459 | 21 | 261 | 19.3 | 24.1 | 0.00 | 0.20 | 0.20 | 46 | 1004.4 |
| 20260504200956 | 21 | 236 | 6.4 | 8.0 | 0.00 | 0.20 | 0.20 | 48 | 1004.6 |
| 20260504200453 | 21 | 242 | 8.0 | 11.3 | 0.00 | 0.20 | 0.20 | 48 | 1004.8 |
| 20260504195949 | 21 | 252 | 8.0 | 12.9 | 0.00 | 0.20 | 0.20 | 48 | 1004.8 |
| 20260504195445 | 21 | 272 | 12.9 | 22.5 | 0.00 | 0.20 | 0.20 | 48 | 1004.6 |
| 20260504194942 | 21 | 245 | 6.4 | 9.7 | 0.00 | 0.20 | 0.20 | 48 | 1004.7 |
| 20260504194438 | 21 | 244 | 4.8 | 9.7 | 0.00 | 0.20 | 0.20 | 48 | 1004.7 |
| 20260504193934 | 21 | 258 | 4.8 | 4.8 | 0.00 | 0.20 | 0.20 | 50 | 1004.9 |
| 20260504193432 | 20 | 276 | 4.8 | 8.0 | 0.00 | 0.20 | 0.20 | 49 | 1005.2 |
| 20260504192931 | 20 | 172 | 8.0 | 12.9 | 0.00 | 0.20 | 0.20 | 49 | 1005.0 |
| 20260504192427 | 21 | 339 | 3.2 | 3.2 | 0.00 | 0.20 | 0.20 | 50 | 1005.1 |
| 20260504191926 | 20 | 268 | 6.4 | 9.7 | 0.00 | 0.20 | 0.20 | 51 | 1005.2 |
| 20260504191424 | 20 | 207 | 11.3 | 12.9 | 0.00 | 0.20 | 0.20 | 50 | 1005.2 |
| 20260504190919 | 20 | 256 | 8.0 | 9.7 | 0.00 | 0.20 | 0.20 | 49 | 1005.4 |
| 20260504190415 | 20 | 197 | 3.2 | 3.2 | 0.00 | 0.20 | 0.20 | 52 | 1005.3 |
| 20260504185912 | 20 | 259 | 4.8 | 8.0 | 0.00 | 0.20 | 0.20 | 51 | 1005.2 |
| 20260504185409 | 20 | 302 | 12.9 | 16.1 | 0.00 | 0.20 | 0.20 | 49 | 1005.2 |
| 20260504184905 | 20 | 13 | 12.9 | 17.7 | 0.00 | 0.20 | 0.20 | 50 | 1005.3 |
| 20260504184401 | 20 | 274 | 4.8 | 4.8 | 0.00 | 0.20 | 0.20 | 50 | 1005.4 |
| 20260504183857 | 20 | 278 | 3.2 | 4.8 | 0.00 | 0.20 | 0.20 | 52 | 1005.3 |
| 20260504183354 | 20 | 263 | 8.0 | 9.7 | 0.00 | 0.20 | 0.20 | 51 | 1005.4 |
| 20260504182852 | 20 | 152 | 8.0 | 11.3 | 0.00 | 0.20 | 0.20 | 50 | 1005.5 |
| 20260504182349 | 19 | 232 | 4.8 | 8.0 | 0.00 | 0.20 | 0.20 | 52 | 1005.4 |
| 20260504181845 | 18 | 250 | 4.8 | 4.8 | 0.00 | 0.20 | 0.20 | 52 | 1005.4 |
| 20260504181343 | 19 | 277 | 17.7 | 24.1 | 0.00 | 0.20 | 0.20 | 51 | 1005.7 |
| 20260504180842 | 19 | 311 | 6.4 | 8.0 | 0.00 | 0.20 | 0.20 | 52 | 1005.7 |